Year,Month,Day,Hour,Minute,Value (Times are PST for insolation in W/m^2)
2018,01,26,00,00,0.00
2018,01,26,00,01,0.00
2018,01,26,00,02,0.00
2018,01,26,00,03,0.00
2018,01,26,00,04,0.00
2018,01,26,00,05,0.00
2018,01,26,00,06,0.00
2018,01,26,00,07,0.00
2018,01,26,00,08,0.00
2018,01,26,00,09,0.00
2018,01,26,00,10,0.00
2018,01,26,00,11,0.00
2018,01,26,00,12,0.00
2018,01,26,00,13,0.00
2018,01,26,00,14,0.00
2018,01,26,00,15,0.00
2018,01,26,00,16,0.00
2018,01,26,00,17,0.00
2018,01,26,00,18,0.00
2018,01,26,00,19,0.00
2018,01,26,00,20,0.00
2018,01,26,00,21,0.00
2018,01,26,00,22,0.00
2018,01,26,00,23,0.00
2018,01,26,00,24,0.00
2018,01,26,00,25,0.00
2018,01,26,00,26,0.00
2018,01,26,00,27,0.00
2018,01,26,00,28,0.00
2018,01,26,00,29,0.00
2018,01,26,00,30,0.00
2018,01,26,00,31,0.00
2018,01,26,00,32,0.00
2018,01,26,00,33,0.00
2018,01,26,00,34,0.00
2018,01,26,00,35,0.00
2018,01,26,00,36,0.00
2018,01,26,00,37,0.00
2018,01,26,00,38,0.00
2018,01,26,00,39,0.00
2018,01,26,00,40,0.00
2018,01,26,00,41,0.00
2018,01,26,00,42,0.00
2018,01,26,00,43,0.00
2018,01,26,00,44,0.00
2018,01,26,00,45,0.00
2018,01,26,00,46,0.00
2018,01,26,00,47,0.00
2018,01,26,00,48,0.00
2018,01,26,00,49,0.00
2018,01,26,00,50,0.00
2018,01,26,00,51,0.00
2018,01,26,00,52,0.00
2018,01,26,00,53,0.00
2018,01,26,00,54,0.00
2018,01,26,00,55,0.00
2018,01,26,00,56,0.00
2018,01,26,00,57,0.00
2018,01,26,00,58,0.00
2018,01,26,00,59,0.00
2018,01,26,01,00,0.00
2018,01,26,01,01,0.00
2018,01,26,01,02,0.00
2018,01,26,01,03,0.00
2018,01,26,01,04,0.00
2018,01,26,01,05,0.00
2018,01,26,01,06,0.00
2018,01,26,01,07,0.00
2018,01,26,01,08,0.00
2018,01,26,01,09,0.00
2018,01,26,01,10,0.00
2018,01,26,01,11,0.00
2018,01,26,01,12,0.00
2018,01,26,01,13,0.00
2018,01,26,01,14,0.00
2018,01,26,01,15,0.00
2018,01,26,01,16,0.00
2018,01,26,01,17,0.00
2018,01,26,01,18,0.00
2018,01,26,01,19,0.00
2018,01,26,01,20,0.00
2018,01,26,01,21,0.00
2018,01,26,01,22,0.00
2018,01,26,01,23,0.00
2018,01,26,01,24,0.00
2018,01,26,01,25,0.00
2018,01,26,01,26,0.00
2018,01,26,01,27,0.00
2018,01,26,01,28,0.00
2018,01,26,01,29,0.00
2018,01,26,01,30,0.00
2018,01,26,01,31,0.00
2018,01,26,01,32,0.00
2018,01,26,01,33,0.00
2018,01,26,01,34,0.00
2018,01,26,01,35,0.00
2018,01,26,01,36,0.00
2018,01,26,01,37,0.00
2018,01,26,01,38,0.00
2018,01,26,01,39,0.00
2018,01,26,01,40,0.00
2018,01,26,01,41,0.00
2018,01,26,01,42,0.00
2018,01,26,01,43,0.00
2018,01,26,01,44,0.00
2018,01,26,01,45,0.00
2018,01,26,01,46,0.00
2018,01,26,01,47,0.00
2018,01,26,01,48,0.00
2018,01,26,01,49,0.00
2018,01,26,01,50,0.00
2018,01,26,01,51,0.00
2018,01,26,01,52,0.00
2018,01,26,01,53,0.00
2018,01,26,01,54,0.00
2018,01,26,01,55,0.00
2018,01,26,01,56,0.00
2018,01,26,01,57,0.00
2018,01,26,01,58,0.00
2018,01,26,01,59,0.00
2018,01,26,02,00,0.00
2018,01,26,02,01,0.00
2018,01,26,02,02,0.00
2018,01,26,02,03,0.00
2018,01,26,02,04,0.00
2018,01,26,02,05,0.00
2018,01,26,02,06,0.00
2018,01,26,02,07,0.00
2018,01,26,02,08,0.00
2018,01,26,02,09,0.00
2018,01,26,02,10,0.00
2018,01,26,02,11,0.00
2018,01,26,02,12,0.00
2018,01,26,02,13,0.00
2018,01,26,02,14,0.00
2018,01,26,02,15,0.00
2018,01,26,02,16,0.00
2018,01,26,02,17,0.00
2018,01,26,02,18,0.00
2018,01,26,02,19,0.00
2018,01,26,02,20,0.00
2018,01,26,02,21,0.00
2018,01,26,02,22,0.00
2018,01,26,02,23,0.00
2018,01,26,02,24,0.00
2018,01,26,02,25,0.00
2018,01,26,02,26,0.00
2018,01,26,02,27,0.00
2018,01,26,02,28,0.00
2018,01,26,02,29,0.00
2018,01,26,02,30,0.00
2018,01,26,02,31,0.00
2018,01,26,02,32,0.00
2018,01,26,02,33,0.00
2018,01,26,02,34,0.00
2018,01,26,02,35,0.00
2018,01,26,02,36,0.00
2018,01,26,02,37,0.00
2018,01,26,02,38,0.00
2018,01,26,02,39,0.00
2018,01,26,02,40,0.00
2018,01,26,02,41,0.00
2018,01,26,02,42,0.00
2018,01,26,02,43,0.00
2018,01,26,02,44,0.00
2018,01,26,02,45,0.00
2018,01,26,02,46,0.00
2018,01,26,02,47,0.00
2018,01,26,02,48,0.00
2018,01,26,02,49,0.00
2018,01,26,02,50,0.00
2018,01,26,02,51,0.00
2018,01,26,02,52,0.00
2018,01,26,02,53,0.00
2018,01,26,02,54,0.00
2018,01,26,02,55,0.00
2018,01,26,02,56,0.00
2018,01,26,02,57,0.00
2018,01,26,02,58,0.00
2018,01,26,02,59,0.00
2018,01,26,03,00,0.00
2018,01,26,03,01,0.00
2018,01,26,03,02,0.00
2018,01,26,03,03,0.00
2018,01,26,03,04,0.00
2018,01,26,03,05,0.00
2018,01,26,03,06,0.00
2018,01,26,03,07,0.00
2018,01,26,03,08,0.00
2018,01,26,03,09,0.00
2018,01,26,03,10,0.00
2018,01,26,03,11,0.00
2018,01,26,03,12,0.00
2018,01,26,03,13,0.00
2018,01,26,03,14,0.00
2018,01,26,03,15,0.00
2018,01,26,03,16,0.00
2018,01,26,03,17,0.00
2018,01,26,03,18,0.00
2018,01,26,03,19,0.00
2018,01,26,03,20,0.00
2018,01,26,03,21,0.00
2018,01,26,03,22,0.00
2018,01,26,03,23,0.00
2018,01,26,03,24,0.00
2018,01,26,03,25,0.00
2018,01,26,03,26,0.00
2018,01,26,03,27,0.00
2018,01,26,03,28,0.00
2018,01,26,03,29,0.00
2018,01,26,03,30,0.00
2018,01,26,03,31,0.00
2018,01,26,03,32,0.00
2018,01,26,03,33,0.00
2018,01,26,03,34,0.00
2018,01,26,03,35,0.00
2018,01,26,03,36,0.00
2018,01,26,03,37,0.00
2018,01,26,03,38,0.00
2018,01,26,03,39,0.00
2018,01,26,03,40,0.00
2018,01,26,03,41,0.00
2018,01,26,03,42,0.00
2018,01,26,03,43,0.00
2018,01,26,03,44,0.00
2018,01,26,03,45,0.00
2018,01,26,03,46,0.00
2018,01,26,03,47,0.00
2018,01,26,03,48,0.00
2018,01,26,03,49,0.00
2018,01,26,03,50,0.00
2018,01,26,03,51,0.00
2018,01,26,03,52,0.00
2018,01,26,03,53,0.00
2018,01,26,03,54,0.00
2018,01,26,03,55,0.00
2018,01,26,03,56,0.00
2018,01,26,03,57,0.00
2018,01,26,03,58,0.00
2018,01,26,03,59,0.00
2018,01,26,04,00,0.00
2018,01,26,04,01,0.00
2018,01,26,04,02,0.00
2018,01,26,04,03,0.00
2018,01,26,04,04,0.00
2018,01,26,04,05,0.00
2018,01,26,04,06,0.00
2018,01,26,04,07,0.00
2018,01,26,04,08,0.00
2018,01,26,04,09,0.00
2018,01,26,04,10,0.00
2018,01,26,04,11,0.00
2018,01,26,04,12,0.00
2018,01,26,04,13,0.00
2018,01,26,04,14,0.00
2018,01,26,04,15,0.00
2018,01,26,04,16,0.00
2018,01,26,04,17,0.00
2018,01,26,04,18,0.00
2018,01,26,04,19,0.00
2018,01,26,04,20,0.00
2018,01,26,04,21,0.00
2018,01,26,04,22,0.00
2018,01,26,04,23,0.00
2018,01,26,04,24,0.00
2018,01,26,04,25,0.00
2018,01,26,04,26,0.00
2018,01,26,04,27,0.00
2018,01,26,04,28,0.00
2018,01,26,04,29,0.00
2018,01,26,04,30,0.00
2018,01,26,04,31,0.00
2018,01,26,04,32,0.00
2018,01,26,04,33,0.00
2018,01,26,04,34,0.00
2018,01,26,04,35,0.00
2018,01,26,04,36,0.00
2018,01,26,04,37,0.00
2018,01,26,04,38,0.00
2018,01,26,04,39,0.00
2018,01,26,04,40,0.00
2018,01,26,04,41,0.00
2018,01,26,04,42,0.00
2018,01,26,04,43,0.00
2018,01,26,04,44,0.00
2018,01,26,04,45,0.00
2018,01,26,04,46,0.00
2018,01,26,04,47,0.00
2018,01,26,04,48,0.00
2018,01,26,04,49,0.00
2018,01,26,04,50,0.00
2018,01,26,04,51,0.00
2018,01,26,04,52,0.00
2018,01,26,04,53,0.00
2018,01,26,04,54,0.00
2018,01,26,04,55,0.00
2018,01,26,04,56,0.00
2018,01,26,04,57,0.00
2018,01,26,04,58,0.00
2018,01,26,04,59,0.00
2018,01,26,05,00,0.00
2018,01,26,05,01,0.00
2018,01,26,05,02,0.00
2018,01,26,05,03,0.00
2018,01,26,05,04,0.00
2018,01,26,05,05,0.00
2018,01,26,05,06,0.00
2018,01,26,05,07,0.00
2018,01,26,05,08,0.00
2018,01,26,05,09,0.00
2018,01,26,05,10,0.00
2018,01,26,05,11,0.00
2018,01,26,05,12,0.00
2018,01,26,05,13,0.00
2018,01,26,05,14,0.00
2018,01,26,05,15,0.00
2018,01,26,05,16,0.00
2018,01,26,05,17,0.00
2018,01,26,05,18,0.00
2018,01,26,05,19,0.00
2018,01,26,05,20,0.00
2018,01,26,05,21,0.00
2018,01,26,05,22,0.00
2018,01,26,05,23,0.00
2018,01,26,05,24,0.00
2018,01,26,05,25,0.00
2018,01,26,05,26,0.00
2018,01,26,05,27,0.00
2018,01,26,05,28,0.00
2018,01,26,05,29,0.00
2018,01,26,05,30,0.00
2018,01,26,05,31,0.00
2018,01,26,05,32,0.00
2018,01,26,05,33,0.00
2018,01,26,05,34,0.00
2018,01,26,05,35,0.00
2018,01,26,05,36,0.00
2018,01,26,05,37,0.00
2018,01,26,05,38,0.00
2018,01,26,05,39,0.00
2018,01,26,05,40,0.00
2018,01,26,05,41,0.00
2018,01,26,05,42,0.00
2018,01,26,05,43,0.00
2018,01,26,05,44,0.00
2018,01,26,05,45,0.00
2018,01,26,05,46,0.00
2018,01,26,05,47,0.00
2018,01,26,05,48,0.00
2018,01,26,05,49,0.00
2018,01,26,05,50,0.00
2018,01,26,05,51,0.00
2018,01,26,05,52,0.00
2018,01,26,05,53,0.00
2018,01,26,05,54,0.00
2018,01,26,05,55,0.00
2018,01,26,05,56,0.00
2018,01,26,05,57,0.00
2018,01,26,05,58,0.00
2018,01,26,05,59,0.00
2018,01,26,06,00,0.00
2018,01,26,06,01,0.00
2018,01,26,06,02,0.00
2018,01,26,06,03,0.00
2018,01,26,06,04,0.00
2018,01,26,06,05,0.00
2018,01,26,06,06,0.00
2018,01,26,06,07,0.00
2018,01,26,06,08,0.00
2018,01,26,06,09,0.00
2018,01,26,06,10,0.00
2018,01,26,06,11,0.00
2018,01,26,06,12,0.00
2018,01,26,06,13,0.00
2018,01,26,06,14,0.00
2018,01,26,06,15,0.00
2018,01,26,06,16,0.00
2018,01,26,06,17,0.00
2018,01,26,06,18,0.00
2018,01,26,06,19,0.00
2018,01,26,06,20,0.00
2018,01,26,06,21,0.00
2018,01,26,06,22,0.00
2018,01,26,06,23,0.00
2018,01,26,06,24,0.00
2018,01,26,06,25,0.00
2018,01,26,06,26,0.00
2018,01,26,06,27,0.00
2018,01,26,06,28,0.00
2018,01,26,06,29,0.00
2018,01,26,06,30,0.00
2018,01,26,06,31,0.00
2018,01,26,06,32,0.00
2018,01,26,06,33,0.00
2018,01,26,06,34,0.00
2018,01,26,06,35,0.00
2018,01,26,06,36,0.00
2018,01,26,06,37,0.00
2018,01,26,06,38,0.00
2018,01,26,06,39,0.00
2018,01,26,06,40,0.00
2018,01,26,06,41,0.00
2018,01,26,06,42,0.00
2018,01,26,06,43,0.00
2018,01,26,06,44,0.00
2018,01,26,06,45,0.00
2018,01,26,06,46,0.00
2018,01,26,06,47,0.00
2018,01,26,06,48,0.00
2018,01,26,06,49,0.00
2018,01,26,06,50,0.00
2018,01,26,06,51,0.00
2018,01,26,06,52,0.00
2018,01,26,06,53,0.00
2018,01,26,06,54,0.00
2018,01,26,06,55,0.00
2018,01,26,06,56,0.00
2018,01,26,06,57,0.00
2018,01,26,06,58,0.00
2018,01,26,06,59,0.00
2018,01,26,07,00,0.00
2018,01,26,07,01,0.00
2018,01,26,07,02,0.00
2018,01,26,07,03,0.00
2018,01,26,07,04,0.00
2018,01,26,07,05,0.00
2018,01,26,07,06,0.00
2018,01,26,07,07,0.00
2018,01,26,07,08,0.00
2018,01,26,07,09,0.00
2018,01,26,07,10,0.00
2018,01,26,07,11,0.00
2018,01,26,07,12,0.00
2018,01,26,07,13,0.00
2018,01,26,07,14,0.00
2018,01,26,07,15,0.00
2018,01,26,07,16,0.00
2018,01,26,07,17,0.00
2018,01,26,07,18,0.00
2018,01,26,07,19,0.00
2018,01,26,07,20,0.00
2018,01,26,07,21,0.00
2018,01,26,07,22,0.00
2018,01,26,07,23,0.00
2018,01,26,07,24,0.00
2018,01,26,07,25,0.00
2018,01,26,07,26,0.00
2018,01,26,07,27,0.00
2018,01,26,07,28,0.00
2018,01,26,07,29,0.00
2018,01,26,07,30,0.00
2018,01,26,07,31,0.00
2018,01,26,07,32,0.00
2018,01,26,07,33,0.00
2018,01,26,07,34,0.00
2018,01,26,07,35,0.00
2018,01,26,07,36,0.00
2018,01,26,07,37,0.00
2018,01,26,07,38,0.00
2018,01,26,07,39,0.00
2018,01,26,07,40,0.00
2018,01,26,07,41,0.00
2018,01,26,07,42,0.00
2018,01,26,07,43,0.00
2018,01,26,07,44,0.00
2018,01,26,07,45,0.00
2018,01,26,07,46,0.00
2018,01,26,07,47,0.00
2018,01,26,07,48,0.00
2018,01,26,07,49,0.00
2018,01,26,07,50,0.00
2018,01,26,07,51,0.00
2018,01,26,07,52,0.00
2018,01,26,07,53,0.00
2018,01,26,07,54,0.00
2018,01,26,07,55,0.00
2018,01,26,07,56,0.00
2018,01,26,07,57,0.00
2018,01,26,07,58,0.00
2018,01,26,07,59,0.00
2018,01,26,08,00,0.00
2018,01,26,08,01,0.00
2018,01,26,08,02,0.00
2018,01,26,08,03,0.00
2018,01,26,08,04,0.00
2018,01,26,08,05,0.00
2018,01,26,08,06,0.00
2018,01,26,08,07,0.00
2018,01,26,08,08,0.00
2018,01,26,08,09,0.00
2018,01,26,08,10,0.00
2018,01,26,08,11,0.00
2018,01,26,08,12,0.00
2018,01,26,08,13,4.30
2018,01,26,08,14,5.00
2018,01,26,08,15,5.00
2018,01,26,08,16,5.00
2018,01,26,08,17,6.00
2018,01,26,08,18,7.00
2018,01,26,08,19,7.00
2018,01,26,08,20,7.00
2018,01,26,08,21,7.20
2018,01,26,08,22,9.00
2018,01,26,08,23,9.00
2018,01,26,08,24,9.00
2018,01,26,08,25,9.00
2018,01,26,08,26,9.00
2018,01,26,08,27,10.70
2018,01,26,08,28,11.00
2018,01,26,08,29,11.00
2018,01,26,08,30,11.00
2018,01,26,08,31,11.50
2018,01,26,08,32,12.00
2018,01,26,08,33,12.00
2018,01,26,08,34,12.00
2018,01,26,08,35,14.00
2018,01,26,08,36,14.00
2018,01,26,08,37,14.70
2018,01,26,08,38,16.00
2018,01,26,08,39,16.00
2018,01,26,08,40,16.00
2018,01,26,08,41,17.70
2018,01,26,08,42,18.00
2018,01,26,08,43,18.00
2018,01,26,08,44,18.30
2018,01,26,08,45,19.00
2018,01,26,08,46,19.00
2018,01,26,08,47,20.60
2018,01,26,08,48,21.00
2018,01,26,08,49,21.00
2018,01,26,08,50,21.50
2018,01,26,08,51,23.00
2018,01,26,08,52,23.00
2018,01,26,08,53,23.00
2018,01,26,08,54,24.60
2018,01,26,08,55,25.00
2018,01,26,08,56,25.10
2018,01,26,08,57,26.00
2018,01,26,08,58,25.60
2018,01,26,08,59,25.00
2018,01,26,09,00,25.00
2018,01,26,09,01,23.50
2018,01,26,09,02,23.00
2018,01,26,09,03,23.00
2018,01,26,09,04,23.00
2018,01,26,09,05,23.00
2018,01,26,09,06,23.00
2018,01,26,09,07,24.30
2018,01,26,09,08,25.00
2018,01,26,09,09,25.00
2018,01,26,09,10,25.10
2018,01,26,09,11,26.50
2018,01,26,09,12,29.90
2018,01,26,09,13,40.70
2018,01,26,09,14,44.60
2018,01,26,09,15,45.00
2018,01,26,09,16,64.70
2018,01,26,09,17,54.60
2018,01,26,09,18,68.30
2018,01,26,09,19,72.70
2018,01,26,09,20,74.00
2018,01,26,09,21,74.00
2018,01,26,09,22,70.30
2018,01,26,09,23,75.20
2018,01,26,09,24,75.90
2018,01,26,09,25,61.20
2018,01,26,09,26,68.90
2018,01,26,09,27,71.30
2018,01,26,09,28,101.20
2018,01,26,09,29,121.20
2018,01,26,09,30,121.20
2018,01,26,09,31,117.20
2018,01,26,09,32,110.00
2018,01,26,09,33,107.00
2018,01,26,09,34,107.00
2018,01,26,09,35,109.50
2018,01,26,09,36,113.20
2018,01,26,09,37,114.00
2018,01,26,09,38,113.20
2018,01,26,09,39,109.40
2018,01,26,09,40,118.00
2018,01,26,09,41,119.40
2018,01,26,09,42,124.60
2018,01,26,09,43,104.50
2018,01,26,09,44,90.80
2018,01,26,09,45,116.40
2018,01,26,09,46,135.00
2018,01,26,09,47,132.30
2018,01,26,09,48,120.70
2018,01,26,09,49,134.10
2018,01,26,09,50,151.60
2018,01,26,09,51,154.80
2018,01,26,09,52,149.30
2018,01,26,09,53,139.80
2018,01,26,09,54,163.00
2018,01,26,09,55,170.00
2018,01,26,09,56,180.10
2018,01,26,09,57,187.50
2018,01,26,09,58,140.00
2018,01,26,09,59,129.30
2018,01,26,10,00,157.60
2018,01,26,10,01,193.10
2018,01,26,10,02,192.00
2018,01,26,10,03,196.30
2018,01,26,10,04,223.30
2018,01,26,10,05,233.40
2018,01,26,10,06,231.40
2018,01,26,10,07,224.70
2018,01,26,10,08,189.90
2018,01,26,10,09,154.00
2018,01,26,10,10,129.20
2018,01,26,10,11,138.10
2018,01,26,10,12,180.50
2018,01,26,10,13,172.90
2018,01,26,10,14,188.00
2018,01,26,10,15,203.20
2018,01,26,10,16,231.40
2018,01,26,10,17,232.70
2018,01,26,10,18,221.60
2018,01,26,10,19,228.20
2018,01,26,10,20,213.10
2018,01,26,10,21,212.20
2018,01,26,10,22,231.50
2018,01,26,10,23,236.60
2018,01,26,10,24,240.20
2018,01,26,10,25,241.00
2018,01,26,10,26,242.80
2018,01,26,10,27,238.80
2018,01,26,10,28,236.20
2018,01,26,10,29,237.00
2018,01,26,10,30,240.50
2018,01,26,10,31,246.50
2018,01,26,10,32,253.20
2018,01,26,10,33,257.70
2018,01,26,10,34,267.40
2018,01,26,10,35,272.30
2018,01,26,10,36,280.10
2018,01,26,10,37,293.70
2018,01,26,10,38,298.50
2018,01,26,10,39,300.00
2018,01,26,10,40,301.00
2018,01,26,10,41,302.70
2018,01,26,10,42,309.80
2018,01,26,10,43,318.00
2018,01,26,10,44,323.00
2018,01,26,10,45,327.40
2018,01,26,10,46,330.00
2018,01,26,10,47,329.10
2018,01,26,10,48,326.60
2018,01,26,10,49,322.30
2018,01,26,10,50,319.30
2018,01,26,10,51,316.50
2018,01,26,10,52,312.60
2018,01,26,10,53,308.70
2018,01,26,10,54,304.60
2018,01,26,10,55,273.30
2018,01,26,10,56,212.70
2018,01,26,10,57,250.00
2018,01,26,10,58,264.00
2018,01,26,10,59,206.10
2018,01,26,11,00,195.70
2018,01,26,11,01,212.00
2018,01,26,11,02,164.70
2018,01,26,11,03,129.50
2018,01,26,11,04,128.70
2018,01,26,11,05,136.70
2018,01,26,11,06,119.40
2018,01,26,11,07,93.90
2018,01,26,11,08,90.90
2018,01,26,11,09,95.00
2018,01,26,11,10,95.80
2018,01,26,11,11,98.00
2018,01,26,11,12,97.50
2018,01,26,11,13,95.70
2018,01,26,11,14,96.50
2018,01,26,11,15,101.30
2018,01,26,11,16,176.00
2018,01,26,11,17,213.80
2018,01,26,11,18,344.10
2018,01,26,11,19,339.60
2018,01,26,11,20,336.70
2018,01,26,11,21,334.50
2018,01,26,11,22,330.60
2018,01,26,11,23,329.60
2018,01,26,11,24,334.00
2018,01,26,11,25,284.70
2018,01,26,11,26,215.90
2018,01,26,11,27,297.80
2018,01,26,11,28,332.00
2018,01,26,11,29,332.00
2018,01,26,11,30,248.90
2018,01,26,11,31,311.00
2018,01,26,11,32,353.70
2018,01,26,11,33,355.00
2018,01,26,11,34,254.30
2018,01,26,11,35,217.20
2018,01,26,11,36,136.10
2018,01,26,11,37,106.40
2018,01,26,11,38,103.80
2018,01,26,11,39,120.90
2018,01,26,11,40,116.90
2018,01,26,11,41,92.30
2018,01,26,11,42,110.00
2018,01,26,11,43,161.30
2018,01,26,11,44,202.70
2018,01,26,11,45,230.70
2018,01,26,11,46,219.60
2018,01,26,11,47,200.30
2018,01,26,11,48,179.10
2018,01,26,11,49,162.90
2018,01,26,11,50,160.00
2018,01,26,11,51,220.90
2018,01,26,11,52,151.10
2018,01,26,11,53,142.20
2018,01,26,11,54,179.90
2018,01,26,11,55,228.60
2018,01,26,11,56,177.50
2018,01,26,11,57,148.90
2018,01,26,11,58,143.30
2018,01,26,11,59,162.00
2018,01,26,12,00,192.40
2018,01,26,12,01,268.60
2018,01,26,12,02,316.40
2018,01,26,12,03,336.40
2018,01,26,12,04,384.30
2018,01,26,12,05,371.90
2018,01,26,12,06,216.40
2018,01,26,12,07,180.80
2018,01,26,12,08,164.30
2018,01,26,12,09,148.40
2018,01,26,12,10,135.10
2018,01,26,12,11,122.20
2018,01,26,12,12,115.70
2018,01,26,12,13,113.00
2018,01,26,12,14,115.40
2018,01,26,12,15,128.20
2018,01,26,12,16,134.00
2018,01,26,12,17,132.00
2018,01,26,12,18,157.60
2018,01,26,12,19,175.50
2018,01,26,12,20,198.30
2018,01,26,12,21,244.20
2018,01,26,12,22,226.00
2018,01,26,12,23,231.40
2018,01,26,12,24,216.60
2018,01,26,12,25,262.80
2018,01,26,12,26,277.30
2018,01,26,12,27,241.10
2018,01,26,12,28,282.20
2018,01,26,12,29,278.10
2018,01,26,12,30,261.70
2018,01,26,12,31,304.30
2018,01,26,12,32,393.30
2018,01,26,12,33,415.60
2018,01,26,12,34,347.50
2018,01,26,12,35,346.00
2018,01,26,12,36,293.00
2018,01,26,12,37,230.70
2018,01,26,12,38,247.70
2018,01,26,12,39,237.10
2018,01,26,12,40,309.90
2018,01,26,12,41,261.10
2018,01,26,12,42,263.10
2018,01,26,12,43,213.30
2018,01,26,12,44,195.60
2018,01,26,12,45,266.80
2018,01,26,12,46,264.00
2018,01,26,12,47,273.30
2018,01,26,12,48,288.00
2018,01,26,12,49,243.90
2018,01,26,12,50,159.40
2018,01,26,12,51,195.20
2018,01,26,12,52,265.50
2018,01,26,12,53,359.10
2018,01,26,12,54,302.00
2018,01,26,12,55,274.00
2018,01,26,12,56,210.40
2018,01,26,12,57,301.30
2018,01,26,12,58,336.00
2018,01,26,12,59,336.00
2018,01,26,13,00,376.00
2018,01,26,13,01,366.00
2018,01,26,13,02,305.90
2018,01,26,13,03,129.90
2018,01,26,13,04,155.10
2018,01,26,13,05,185.00
2018,01,26,13,06,304.30
2018,01,26,13,07,346.00
2018,01,26,13,08,211.00
2018,01,26,13,09,242.00
2018,01,26,13,10,239.00
2018,01,26,13,11,162.90
2018,01,26,13,12,81.00
2018,01,26,13,13,77.30
2018,01,26,13,14,70.70
2018,01,26,13,15,69.00
2018,01,26,13,16,71.60
2018,01,26,13,17,100.50
2018,01,26,13,18,179.40
2018,01,26,13,19,268.40
2018,01,26,13,20,331.70
2018,01,26,13,21,367.00
2018,01,26,13,22,352.00
2018,01,26,13,23,253.40
2018,01,26,13,24,302.60
2018,01,26,13,25,317.50
2018,01,26,13,26,306.10
2018,01,26,13,27,290.30
2018,01,26,13,28,277.00
2018,01,26,13,29,266.30
2018,01,26,13,30,258.00
2018,01,26,13,31,255.00
2018,01,26,13,32,239.90
2018,01,26,13,33,207.10
2018,01,26,13,34,195.70
2018,01,26,13,35,191.00
2018,01,26,13,36,187.40
2018,01,26,13,37,205.70
2018,01,26,13,38,209.80
2018,01,26,13,39,260.30
2018,01,26,13,40,308.20
2018,01,26,13,41,329.30
2018,01,26,13,42,352.60
2018,01,26,13,43,343.90
2018,01,26,13,44,336.40
2018,01,26,13,45,350.50
2018,01,26,13,46,343.20
2018,01,26,13,47,338.00
2018,01,26,13,48,310.60
2018,01,26,13,49,303.60
2018,01,26,13,50,286.70
2018,01,26,13,51,209.00
2018,01,26,13,52,138.60
2018,01,26,13,53,117.40
2018,01,26,13,54,119.10
2018,01,26,13,55,116.50
2018,01,26,13,56,114.30
2018,01,26,13,57,116.00
2018,01,26,13,58,116.90
2018,01,26,13,59,121.70
2018,01,26,14,00,125.00
2018,01,26,14,01,123.70
2018,01,26,14,02,121.50
2018,01,26,14,03,121.00
2018,01,26,14,04,119.50
2018,01,26,14,05,114.90
2018,01,26,14,06,109.70
2018,01,26,14,07,105.60
2018,01,26,14,08,102.70
2018,01,26,14,09,99.00
2018,01,26,14,10,97.10
2018,01,26,14,11,97.00
2018,01,26,14,12,96.60
2018,01,26,14,13,93.70
2018,01,26,14,14,89.60
2018,01,26,14,15,86.70
2018,01,26,14,16,87.50
2018,01,26,14,17,88.00
2018,01,26,14,18,90.00
2018,01,26,14,19,90.00
2018,01,26,14,20,89.30
2018,01,26,14,21,88.00
2018,01,26,14,22,86.70
2018,01,26,14,23,83.80
2018,01,26,14,24,81.30
2018,01,26,14,25,78.90
2018,01,26,14,26,77.00
2018,01,26,14,27,76.70
2018,01,26,14,28,76.00
2018,01,26,14,29,76.00
2018,01,26,14,30,76.00
2018,01,26,14,31,76.00
2018,01,26,14,32,77.20
2018,01,26,14,33,79.90
2018,01,26,14,34,83.40
2018,01,26,14,35,85.00
2018,01,26,14,36,86.00
2018,01,26,14,37,87.50
2018,01,26,14,38,88.00
2018,01,26,14,39,88.00
2018,01,26,14,40,88.50
2018,01,26,14,41,90.00
2018,01,26,14,42,90.00
2018,01,26,14,43,90.00
2018,01,26,14,44,88.50
2018,01,26,14,45,88.00
2018,01,26,14,46,86.00
2018,01,26,14,47,86.00
2018,01,26,14,48,86.00
2018,01,26,14,49,87.00
2018,01,26,14,50,88.00
2018,01,26,14,51,89.50
2018,01,26,14,52,90.90
2018,01,26,14,53,91.20
2018,01,26,14,54,92.50
2018,01,26,14,55,91.00
2018,01,26,14,56,92.00
2018,01,26,14,57,94.20
2018,01,26,14,58,98.70
2018,01,26,14,59,104.30
2018,01,26,15,00,109.30
2018,01,26,15,01,113.00
2018,01,26,15,02,111.50
2018,01,26,15,03,107.10
2018,01,26,15,04,103.10
2018,01,26,15,05,99.00
2018,01,26,15,06,98.00
2018,01,26,15,07,100.40
2018,01,26,15,08,104.20
2018,01,26,15,09,105.70
2018,01,26,15,10,106.00
2018,01,26,15,11,103.10
2018,01,26,15,12,99.00
2018,01,26,15,13,93.60
2018,01,26,15,14,87.70
2018,01,26,15,15,83.30
2018,01,26,15,16,80.30
2018,01,26,15,17,78.00
2018,01,26,15,18,77.00
2018,01,26,15,19,77.00
2018,01,26,15,20,77.00
2018,01,26,15,21,81.20
2018,01,26,15,22,85.00
2018,01,26,15,23,88.70
2018,01,26,15,24,90.00
2018,01,26,15,25,86.40
2018,01,26,15,26,80.30
2018,01,26,15,27,74.60
2018,01,26,15,28,69.40
2018,01,26,15,29,63.70
2018,01,26,15,30,57.80
2018,01,26,15,31,51.60
2018,01,26,15,32,49.00
2018,01,26,15,33,50.50
2018,01,26,15,34,55.40
2018,01,26,15,35,59.90
2018,01,26,15,36,59.60
2018,01,26,15,37,56.50
2018,01,26,15,38,53.50
2018,01,26,15,39,51.70
2018,01,26,15,40,52.50
2018,01,26,15,41,53.90
2018,01,26,15,42,54.00
2018,01,26,15,43,53.70
2018,01,26,15,44,52.30
2018,01,26,15,45,52.00
2018,01,26,15,46,53.60
2018,01,26,15,47,55.50
2018,01,26,15,48,57.70
2018,01,26,15,49,60.20
2018,01,26,15,50,62.00
2018,01,26,15,51,62.40
2018,01,26,15,52,62.50
2018,01,26,15,53,60.70
2018,01,26,15,54,58.50
2018,01,26,15,55,54.50
2018,01,26,15,56,50.70
2018,01,26,15,57,46.20
2018,01,26,15,58,43.30
2018,01,26,15,59,40.60
2018,01,26,16,00,36.60
2018,01,26,16,01,33.60
2018,01,26,16,02,33.00
2018,01,26,16,03,32.00
2018,01,26,16,04,31.60
2018,01,26,16,05,30.00
2018,01,26,16,06,29.00
2018,01,26,16,07,28.00
2018,01,26,16,08,26.50
2018,01,26,16,09,26.00
2018,01,26,16,10,26.20
2018,01,26,16,11,28.00
2018,01,26,16,12,28.00
2018,01,26,16,13,27.00
2018,01,26,16,14,26.00
2018,01,26,16,15,25.30
2018,01,26,16,16,25.00
2018,01,26,16,17,23.00
2018,01,26,16,18,22.60
2018,01,26,16,19,21.00
2018,01,26,16,20,21.00
2018,01,26,16,21,19.70
2018,01,26,16,22,19.00
2018,01,26,16,23,19.00
2018,01,26,16,24,17.80
2018,01,26,16,25,16.00
2018,01,26,16,26,16.00
2018,01,26,16,27,15.00
2018,01,26,16,28,14.00
2018,01,26,16,29,14.00
2018,01,26,16,30,14.00
2018,01,26,16,31,14.00
2018,01,26,16,32,14.00
2018,01,26,16,33,14.00
2018,01,26,16,34,14.00
2018,01,26,16,35,12.80
2018,01,26,16,36,12.00
2018,01,26,16,37,11.10
2018,01,26,16,38,10.80
2018,01,26,16,39,9.00
2018,01,26,16,40,8.30
2018,01,26,16,41,7.00
2018,01,26,16,42,8.20
2018,01,26,16,43,9.00
2018,01,26,16,44,9.00
2018,01,26,16,45,9.00
2018,01,26,16,46,9.00
2018,01,26,16,47,8.30
2018,01,26,16,48,7.00
2018,01,26,16,49,7.00
2018,01,26,16,50,7.00
2018,01,26,16,51,7.00
2018,01,26,16,52,6.80
2018,01,26,16,53,5.00
2018,01,26,16,54,5.00
2018,01,26,16,55,5.00
2018,01,26,16,56,1.90
2018,01,26,16,57,0.00
2018,01,26,16,58,0.00
2018,01,26,16,59,0.00
2018,01,26,17,00,0.00
2018,01,26,17,01,0.00
2018,01,26,17,02,0.00
2018,01,26,17,03,0.00
2018,01,26,17,04,0.00
2018,01,26,17,05,0.00
2018,01,26,17,06,0.00
2018,01,26,17,07,0.00
2018,01,26,17,08,0.00
2018,01,26,17,09,0.00
2018,01,26,17,10,0.00
2018,01,26,17,11,0.00
2018,01,26,17,12,0.00
2018,01,26,17,13,0.00
2018,01,26,17,14,0.00
2018,01,26,17,15,0.00
2018,01,26,17,16,0.00
2018,01,26,17,17,0.00
2018,01,26,17,18,0.00
2018,01,26,17,19,0.00
2018,01,26,17,20,0.00
2018,01,26,17,21,0.00
2018,01,26,17,22,0.00
2018,01,26,17,23,0.00
2018,01,26,17,24,0.00
2018,01,26,17,25,0.00
2018,01,26,17,26,0.00
2018,01,26,17,27,0.00
2018,01,26,17,28,0.00
2018,01,26,17,29,0.00
2018,01,26,17,30,0.00
2018,01,26,17,31,0.00